Wind_Speed
37 37 37 37 40 32 28 27 32 32 32 34 30 31 33 30 30 29 30 24 21 17 16 18 17 18 18 13 12 13 17 14 13 12 16 16 14 15 17 19 16 17 19
39 39 39 36 36 36 31 24 26 30 33 24 23 35 28 31 33 32 34 31 29 26 24 21 23 18 18 18 21 18 17 19 21 18 17 17 18 18 19 20 22 22 22
43 43 42 34 35 34 35 29 25 22 25 24 32 31 30 33 30 32 33 32 31 31 27 25 24 22 21 21 25 25 22 19 21 23 26 26 26 25 25 26 28 27 28
47 47 45 39 39 38 38 40 27 25 25 22 23 22 25 26 26 25 28 29 28 27 26 25 25 25 25 23 24 29 31 27 25 24 25 27 28 30 30 31 32 32 33
52 50 49 47 39 41 41 39 35 32 28 25 23 19 21 21 21 24 24 24 25 23 23 27 28 25 23 18 20 23 24 26 29 31 30 31 31 33 35 36 36 35 31
45 53 57 48 45 43 44 44 38 32 35 33 26 22 21 21 21 22 23 20 22 23 24 23 23 22 19 18 16 19 20 19 19 22 23 23 26 30 33 37 40 41 44
46 47 52 52 53 52 48 51 41 37 34 35 29 24 23 22 20 22 24 26 26 23 17 19 22 21 19 18 14 13 10 11 14 15 15 16 21 25 28 30 33 36 38
50 46 50 49 51 53 49 51 50 40 39 37 35 31 28 27 21 19 25 27 24 24 22 21 21 24 22 19 19 20 20 19 18 19 22 24 28 29 30 34 35 38 40
51 48 45 48 50 50 51 49 52 49 42 44 42 37 33 32 27 25 25 25 21 21 24 26 29 26 24 27 27 28 29 30 30 27 30 32 36 38 38 41 43 44 49
55 50 49 50 48 50 51 51 46 46 45 43 43 39 38 36 35 33 24 29 26 24 21 25 26 27 25 26 27 28 30 32 34 38 39 41 44 46 47 50 52 54 54
56 51 48 47 48 50 51 49 47 46 42 47 44 42 40 38 37 38 33 30 32 29 27 29 30 33 31 29 32 33 35 36 39 43 47 44 47 50 53 59 60 55 55
53 53 48 44 43 42 41 41 44 45 43 41 46 45 40 39 35 38 31 28 36 33 32 34 32 34 35 38 38 38 38 41 45 47 47 50 53 58 63 64 59 55 54
52 51 48 43 42 38 35 36 40 43 42 39 39 45 46 44 41 40 38 35 37 37 39 38 39 41 42 45 45 44 47 48 49 52 53 57 61 63 58 48 46 40 32
49 44 50 48 43 38 35 34 31 35 36 33 33 33 34 48 49 44 42 36 40 46 44 43 44 42 47 49 48 51 50 46 49 56 58 58 53 40 27 23 25 29 33
49 46 42 45 43 38 36 35 35 34 35 36 38 36 36 35 41 46 46 43 42 45 47 46 48 48 47 47 47 48 48 50 48 46 45 30 16 19 18 22 26 29 34
50 40 41 41 43 38 38 38 40 39 40 40 38 36 38 40 42 48 50 51 50 48 47 48 50 50 51 51 54 53 50 35 31 24 20 17 14 12 19 21 28 32 33
48 39 31 24 27 40 41 42 45 47 46 43 41 37 41 42 42 38 42 46 45 45 46 49 52 52 54 53 52 43 27 20 15 17 14 14 18 22 25 33 34 35 37
49 39 31 24 25 27 34 42 44 47 45 48 49 51 45 46 48 49 47 45 49 51 55 58 55 52 41 39 29 20 16 17 14 13 14 16 22 29 31 41 40 36 36
51 46 42 18 26 28 33 43 44 42 38 35 38 46 50 50 53 56 57 55 49 52 49 47 39 31 31 24 19 16 16 14 13 16 21 28 34 35 38 40 38 38 42
56 51 44 48 44 52 56 49 54 47 35 34 30 36 40 40 39 40 43 47 47 42 27 25 27 21 15 20 22 18 19 21 24 26 33 39 33 35 37 38 41 43 44
60 50 47 40 35 52 47 41 40 33 31 28 28 38 40 39 39 40 39 37 33 27 25 23 16 16 20 22 24 26 24 25 26 34 38 42 41 42 41 41 45 47 49
61 58 57 50 37 45 61 59 55 56 40 33 35 38 43 41 37 31 29 31 26 31 24 19 19 19 27 29 29 27 30 31 37 39 43 45 46 46 49 50 51 54 56
67 71 62 59 52 29 52 43 53 60 45 34 32 35 40 38 30 27 29 31 37 27 24 22 24 22 21 24 30 33 34 37 40 44 50 49 50 52 55 57 59 61 62
67 65 61 43 45 37 41 51 53 52 49 39 40 38 37 35 36 34 29 33 41 30 31 33 28 24 25 31 33 37 42 46 48 50 53 54 55 58 60 63 64 65 70
67 56 45 32 37 50 49 46 45 41 39 45 46 39 44 42 43 40 36 34 36 39 39 40 38 39 42 42 43 45 48 53 53 55 57 58 61 62 67 70 70 74 71
52 55 50 46 58 48 54 56 50 41 41 43 42 42 45 40 45 43 42 44 44 44 45 48 50 50 53 53 52 53 54 56 57 59 62 64 66 70 74 76 79 77 73
Wind_Direction
209 206 208 205 202 201 203 212 223 227 231 235 235 241 240 239 238 240 249 246 248 258 268 265 262 260 254 249 239 241 244 241 246 243 244 260 275 274 271 272 265 262 261
213 210 207 208 208 214 219 219 230 230 232 243 218 229 237 238 240 239 243 245 254 262 266 268 254 258 258 255 249 245 250 257 252 256 256 260 266 274 274 270 266 261 260
213 212 210 215 215 213 211 206 214 221 230 226 240 248 242 242 246 245 246 248 255 260 266 262 246 259 268 257 247 250 247 250 252 251 252 260 269 268 270 270 268 269 269
214 210 214 215 225 214 214 214 217 221 228 242 249 245 237 238 240 243 243 252 258 258 253 250 248 255 267 267 260 252 250 257 258 261 261 261 267 264 266 268 268 269 272
215 212 216 217 224 216 218 214 218 215 227 232 243 240 237 235 239 242 244 248 251 249 252 254 254 259 257 262 265 261 256 257 259 258 262 267 272 270 266 266 268 269 273
214 213 215 214 221 224 220 214 208 219 225 224 224 227 236 235 238 241 246 240 244 254 265 255 245 248 250 262 260 257 251 255 260 263 266 272 276 276 275 274 272 272 269
215 214 216 223 224 225 223 220 214 215 223 229 225 223 227 235 240 242 239 238 250 255 247 235 225 232 262 244 249 247 231 247 253 261 275 283 279 278 281 283 281 281 280
212 216 218 219 221 224 223 223 228 221 224 225 226 233 237 240 244 237 236 245 256 252 246 251 244 248 244 245 243 253 255 263 267 269 291 292 292 292 288 290 291 288 286
210 213 219 215 216 220 224 228 232 239 237 228 230 233 243 246 234 240 238 243 248 251 248 252 257 253 253 254 260 264 269 268 279 285 293 292 291 293 296 297 296 289 286
207 210 216 211 213 217 221 226 234 238 240 228 226 232 247 244 230 234 227 244 243 248 253 256 262 263 263 266 272 269 271 270 275 283 286 289 289 289 291 295 297 297 291
207 209 210 211 213 216 222 228 234 239 241 238 236 243 248 237 233 233 239 243 244 250 264 262 262 262 265 276 283 281 283 284 285 290 289 286 291 293 294 299 298 293 291
206 207 208 209 214 218 225 229 231 231 241 239 243 244 244 239 239 235 237 242 243 247 252 256 268 270 272 280 282 280 281 283 284 286 285 290 295 300 300 300 293 290 288
203 206 209 212 213 218 223 229 233 233 237 244 249 250 247 239 242 242 239 243 243 248 249 261 270 272 276 277 275 277 283 282 284 285 287 292 294 298 298 293 294 300 305
194 199 209 213 215 215 224 230 238 235 232 231 244 250 254 245 246 243 242 247 249 252 259 264 269 277 278 276 276 277 281 285 284 287 291 294 294 293 297 302 306 310 311
191 196 204 212 217 216 224 236 235 240 234 238 247 250 245 252 254 246 243 250 256 255 262 268 276 280 281 278 278 279 283 286 290 296 294 288 289 296 309 315 318 320 318
188 196 200 211 213 219 229 234 236 243 244 246 247 249 248 251 256 252 253 258 261 257 264 271 274 278 279 278 275 277 287 290 289 285 278 274 285 303 317 331 326 322 318
184 188 199 212 221 227 229 235 231 242 249 252 249 248 251 252 250 261 264 262 257 255 262 277 275 274 274 279 281 285 274 253 248 259 276 282 292 296 314 324 327 323 325
174 174 174 205 225 233 242 249 247 253 257 260 257 248 258 268 266 261 269 266 261 264 270 275 273 279 282 277 277 247 222 235 246 274 293 294 297 306 298 317 319 319 320
169 164 161 188 222 243 256 265 253 239 248 253 261 263 266 270 272 269 270 272 269 270 273 273 270 271 269 266 213 224 230 236 258 294 309 309 304 298 294 303 314 318 318
161 162 166 192 213 226 247 263 265 255 247 263 265 262 268 272 273 273 271 268 262 267 260 246 255 252 236 206 215 241 257 255 271 308 309 307 312 312 308 310 312 315 317
179 191 173 179 190 197 207 214 223 245 257 251 252 261 270 281 282 278 273 266 262 247 235 243 228 236 224 218 232 250 254 273 285 304 315 315 319 317 315 317 318 317 317
178 171 179 175 175 216 212 196 220 241 264 260 257 264 273 282 274 261 256 251 233 211 220 231 230 233 235 235 249 246 277 286 300 305 312 314 311 314 314 314 315 314 315
181 169 169 181 191 195 197 210 234 238 256 246 255 258 264 272 246 245 248 236 208 220 234 242 241 262 255 258 262 267 282 292 297 301 302 305 308 307 309 313 313 312 311
191 195 196 211 208 201 199 205 219 247 248 239 251 253 263 243 234 240 252 231 218 239 257 256 264 273 278 287 290 293 294 296 296 300 302 301 300 302 307 310 309 308 311
197 199 201 214 224 216 225 231 224 234 240 241 249 255 260 248 236 238 245 234 236 249 254 256 262 267 277 280 287 290 293 292 295 297 298 298 298 301 305 307 306 308 308
204 198 200 212 218 219 231 225 219 221 234 238 248 253 254 259 247 242 242 246 248 254 256 262 264 269 273 280 279 283 289 290 295 297 298 299 298 300 303 304 307 306 305
Height
10902 10907 10911 10916 10922 10927 10931 10933 10936 10939 10939 10943 10947 10947 10948 10953 10957 10964 10968 10970 10972 10974 10974 10974 10976 10976 10978 10979 10979 10980 10982 10983 10983 10982 10981 10980 10980 10982 10984 10984 10985 10985 10985
10895 10901 10906 10911 10917 10922 10926 10926 10929 10930 10935 10940 10943 10943 10944 10946 10947 10953 10961 10965 10965 10968 10971 10972 10972 10972 10974 10975 10975 10975 10977 10976 10976 10976 10976 10977 10978 10979 10980 10981 10981 10981 10981
10888 10894 10899 10906 10912 10917 10920 10921 10922 10927 10928 10935 10938 10936 10937 10940 10943 10948 10953 10957 10958 10961 10963 10965 10967 10968 10969 10969 10970 10972 10972 10971 10971 10972 10972 10974 10974 10975 10976 10977 10977 10977 10976
10879 10885 10892 10898 10903 10909 10914 10917 10918 10922 10924 10924 10927 10928 10932 10934 10939 10943 10948 10951 10953 10954 10955 10959 10962 10962 10963 10963 10964 10965 10966 10966 10966 10968 10968 10968 10969 10969 10970 10970 10969 10969 10968
10869 10876 10883 10889 10895 10901 10908 10913 10915 10917 10918 10921 10924 10927 10932 10936 10939 10941 10944 10945 10946 10946 10949 10952 10955 10956 10958 10959 10959 10958 10958 10959 10960 10961 10962 10962 10962 10962 10962 10962 10960 10960 10955
10858 10864 10873 10879 10886 10893 10901 10907 10911 10915 10918 10921 10925 10929 10932 10934 10937 10939 10940 10941 10941 10943 10943 10946 10947 10952 10953 10954 10953 10952 10952 10952 10953 10953 10955 10955 10955 10954 10954 10953 10953 10951 10949
10849 10855 10862 10870 10877 10884 10891 10898 10905 10910 10914 10920 10923 10925 10929 10929 10933 10934 10934 10935 10938 10939 10939 10941 10943 10945 10947 10948 10948 10948 10947 10946 10947 10948 10948 10949 10949 10948 10947 10946 10944 10943 10941
10838 10845 10853 10861 10868 10875 10883 10889 10894 10901 10907 10910 10913 10916 10919 10923 10925 10927 10928 10930 10932 10934 10935 10936 10938 10940 10941 10942 10943 10944 10944 10943 10943 10943 10943 10942 10941 10940 10939 10936 10934 10932 10930
10828 10837 10844 10850 10860 10868 10874 10881 10885 10890 10896 10900 10904 10908 10912 10915 10919 10920 10921 10923 10926 10927 10930 10931 10933 10935 10936 10936 10937 10937 10937 10937 10936 10935 10935 10934 10932 10931 10929 10926 10924 10921 10918
10818 10829 10836 10844 10852 10861 10866 10870 10876 10882 10887 10891 10895 10899 10902 10905 10909 10912 10916 10919 10920 10922 10923 10925 10927 10927 10928 10930 10930 10931 10930 10929 10928 10926 10925 10924 10922 10920 10917 10915 10912 10909 10904
10813 10822 10830 10838 10845 10852 10858 10867 10871 10876 10880 10884 10889 10893 10895 10897 10901 10904 10908 10910 10913 10914 10916 10918 10920 10920 10922 10922 10922 10922 10921 10919 10917 10916 10914 10912 10910 10907 10905 10901 10897 10892 10887
10808 10816 10826 10834 10840 10848 10854 10860 10864 10870 10874 10878 10881 10884 10888 10890 10894 10896 10898 10902 10905 10907 10908 10910 10911 10913 10913 10912 10912 10911 10909 10908 10907 10905 10903 10900 10896 10893 10889 10884 10878 10874 10870
10801 10814 10823 10830 10838 10846 10853 10857 10862 10866 10870 10873 10877 10880 10881 10885 10886 10889 10891 10895 10897 10898 10901 10902 10904 10903 10903 10903 10903 10901 10900 10898 10896 10893 10891 10888 10884 10879 10876 10870 10866 10862 10858
10788 10802 10811 10822 10832 10842 10849 10853 10857 10861 10864 10869 10872 10876 10876 10878 10880 10882 10885 10887 10889 10891 10893 10894 10893 10893 10893 10892 10892 10890 10889 10887 10885 10882 10878 10874 10871 10868 10866 10863 10859 10854 10848
10781 10792 10806 10820 10829 10838 10843 10849 10854 10857 10862 10865 10867 10869 10872 10875 10875 10877 10877 10879 10880 10882 10883 10883 10883 10882 10882 10880 10879 10878 10878 10876 10871 10868 10866 10864 10863 10862 10861 10857 10851 10847 10842
10775 10793 10804 10814 10822 10833 10836 10842 10847 10849 10851 10855 10859 10862 10865 10867 10868 10871 10871 10871 10871 10873 10874 10874 10873 10872 10869 10867 10866 10866 10865 10863 10860 10861 10860 10858 10858 10855 10853 10849 10844 10839 10834
10768 10791 10805 10815 10821 10827 10831 10834 10837 10840 10842 10845 10847 10853 10856 10856 10858 10861 10862 10863 10863 10863 10863 10863 10860 10858 10857 10856 10854 10854 10853 10854 10855 10855 10854 10851 10850 10848 10845 10841 10835 10831 10826
10762 10776 10792 10810 10819 10821 10828 10830 10831 10831 10832 10836 10838 10840 10841 10843 10847 10849 10852 10854 10855 10854 10852 10849 10847 10846 10844 10842 10845 10845 10847 10848 10849 10849 10847 10845 10843 10841 10836 10832 10828 10823 10817
10754 10765 10768 10796 10809 10813 10819 10813 10815 10814 10816 10819 10824 10827 10828 10830 10834 10837 10839 10841 10842 10841 10839 10838 10836 10834 10834 10835 10839 10840 10841 10841 10842 10841 10839 10838 10835 10831 10828 10823 10817 10811 10806
10752 10758 10764 10778 10785 10814 10809 10807 10811 10809 10805 10805 10813 10815 10818 10822 10821 10821 10821 10824 10826 10828 10829 10828 10826 10825 10827 10829 10832 10833 10834 10835 10833 10833 10832 10830 10826 10822 10817 10813 10808 10802 10795
10740 10749 10759 10772 10788 10805 10816 10812 10767 10794 10795 10795 10800 10805 10811 10812 10810 10811 10811 10813 10814 10817 10821 10820 10819 10820 10822 10824 10826 10827 10827 10827 10825 10823 10820 10816 10812 10809 10806 10800 10795 10789 10784
10728 10738 10747 10750 10764 10781 10791 10797 10787 10786 10785 10789 10790 10797 10802 10804 10801 10802 10803 10806 10807 10810 10813 10812 10813 10815 10817 10818 10819 10818 10817 10815 10813 10810 10807 10805 10801 10797 10793 10788 10783 10778 10772
10718 10725 10734 10744 10752 10755 10762 10777 10776 10775 10776 10779 10781 10790 10789 10793 10795 10797 10798 10800 10802 10803 10805 10805 10806 10807 10808 10809 10809 10809 10807 10804 10802 10800 10797 10792 10789 10784 10780 10774 10768 10763 10757
10709 10716 10725 10733 10740 10749 10759 10765 10762 10761 10763 10770 10772 10783 10782 10781 10788 10792 10794 10795 10798 10798 10797 10797 10797 10798 10798 10798 10797 10797 10794 10792 10790 10787 10783 10779 10774 10770 10765 10760 10753 10746 10740
10704 10713 10722 10725 10733 10742 10748 10754 10753 10752 10756 10766 10766 10773 10774 10777 10780 10784 10787 10790 10790 10790 10789 10789 10789 10790 10790 10789 10787 10785 10783 10781 10778 10774 10768 10764 10760 10755 10750 10743 10736 10730 10721
10701 10711 10719 10721 10723 10724 10726 10737 10744 10748 10756 10757 10758 10761 10768 10770 10772 10774 10776 10778 10779 10779 10779 10779 10778 10779 10776 10774 10774 10770 10769 10766 10763 10759 10753 10748 10744 10739 10733 10726 10717 10710 10703